Lid_Strength_Index
1 1 1 1 2 2 2 3 3 3 3 3 3 3 4 3 3 8 11 8 6 3 3 8 9 10 10 11 10 11 17 19 16 15 15 12 13 12 11 13 12 12 13 12 11
0 0 1 1 1 2 2 3 3 3 3 3 3 3 3 3 7 10 8 5 4 4 8 11 12 11 13 12 12 14 17 16 14 14 14 12 12 12 14 14 14 13 12 12 12
-0 -0 0 1 1 1 2 2 3 3 3 3 3 3 3 4 11 13 6 5 5 5 8 10 11 11 13 12 12 13 16 14 13 12 11 12 12 11 13 15 14 14 14 13 14
-1 -0 -0 0 1 1 1 2 2 2 2 3 3 3 3 7 14 13 7 6 5 6 9 10 11 13 13 14 12 15 13 12 12 11 12 13 11 13 12 13 13 13 13 13 14
-1 -1 -0 -0 0 1 1 2 2 2 2 2 3 3 7 11 12 10 6 7 9 9 10 11 12 13 15 14 14 14 13 11 11 11 12 12 13 13 13 11 12 12 13 14 14
1 -0 -1 -0 0 0 1 1 1 1 1 2 2 3 9 13 11 10 11 10 10 10 10 10 12 11 13 13 14 13 13 13 12 12 12 13 13 13 12 12 13 12 14 14 14
2 1 1 0 -0 0 -0 -0 -0 -0 1 1 2 5 9 11 10 11 9 10 10 10 10 9 10 12 13 13 12 13 15 13 13 13 13 13 15 14 12 11 13 13 13 14 14
2 2 2 1 0 -1 -1 -1 -1 -0 0 1 2 7 11 10 10 10 9 9 8 8 8 8 8 10 13 12 12 13 13 17 14 14 13 15 19 14 12 12 14 13 14 14 14
2 2 1 1 0 0 -1 -1 -1 -0 1 2 6 9 12 8 11 10 9 10 9 8 8 7 10 12 13 14 14 12 16 17 17 14 14 16 19 14 13 13 14 14 15 14 15
2 2 2 2 1 0 -1 -1 -1 -0 3 4 5 11 10 11 9 9 9 9 10 8 9 11 14 16 16 17 20 17 19 17 18 17 16 17 17 15 14 13 14 15 15 16 18
2 2 1 1 0 -1 0 3 5 8 7 9 8 9 5 9 8 10 9 10 10 11 14 13 17 19 16 16 15 17 18 18 17 16 19 19 18 16 15 14 15 15 16 18 16
2 1 0 0 1 2 2 4 8 7 8 5 4 5 8 8 9 10 10 14 13 16 14 15 18 15 15 14 16 18 20 21 20 17 19 19 20 18 14 15 15 15 16 17 17
1 1 0 1 1 3 4 7 5 5 9 7 7 10 11 11 13 12 11 13 15 16 16 18 16 14 15 17 18 19 21 21 21 18 17 19 20 19 15 14 13 15 15 17 19
1 1 0 1 2 4 7 5 5 5 12 10 11 12 11 11 13 10 11 12 14 16 16 17 15 15 17 17 18 21 17 18 19 21 23 18 25 19 16 16 15 17 17 18 19
1 1 1 1 4 5 6 5 3 4 21 12 12 10 11 11 9 11 10 12 15 15 16 17 17 17 17 17 17 19 17 19 19 20 21 19 23 20 15 19 18 17 18 19 19
0 1 1 2 4 4 4 4 5 13 19 12 11 12 10 9 10 10 11 11 12 14 14 16 14 16 17 16 17 17 18 19 19 20 25 23 21 22 22 23 19 20 19 19 19
0 0 2 3 5 4 3 4 13 18 11 13 12 10 10 10 9 11 12 14 17 19 19 15 17 16 15 18 17 18 19 25 23 23 26 20 21 21 19 19 22 24 21 20 19
-0 0 3 3 4 3 4 10 18 13 13 10 10 10 13 11 11 12 13 15 13 16 20 20 21 18 16 19 21 20 20 23 26 26 24 20 24 20 18 18 23 23 24 19 18
-0 2 4 3 3 3 7 16 14 12 10 11 10 14 12 11 13 12 12 13 14 15 18 20 19 17 16 17 19 20 22 19 24 24 25 22 21 18 19 20 20 22 23 21 19
5 4 5 3 2 4 9 13 13 8 8 9 16 13 15 13 13 13 14 13 15 13 13 16 23 17 17 17 17 19 18 21 22 27 29 22 23 23 23 23 22 23 24 21 20
5 7 4 3 3 8 12 12 9 7 8 11 12 13 14 13 12 13 13 13 13 14 14 16 20 20 18 20 20 21 21 20 21 22 25 26 23 23 25 28 26 24 24 23 21
6 11 4 3 11 10 11 9 7 8 8 9 9 10 12 12 13 13 14 13 12 13 17 16 18 23 19 18 17 18 20 19 22 23 23 24 24 20 23 27 28 26 24 23 20
8 7 4 5 14 11 9 9 8 9 9 10 11 10 10 12 14 12 12 12 12 13 16 16 21 24 21 19 18 20 19 19 21 22 25 26 23 18 20 25 26 27 24 23 21
6 11 8 8 8 9 11 11 11 7 9 8 9 9 11 13 11 13 14 13 12 13 12 14 18 20 21 20 20 22 20 20 21 23 25 23 24 21 21 25 25 24 24 23 21
6 9 7 11 11 10 9 10 11 11 9 8 10 11 11 13 16 14 13 13 13 13 13 16 21 19 18 18 19 19 20 21 22 21 23 24 25 23 24 27 27 27 25 24 23
7 10 9 9 8 10 10 11 11 11 10 11 11 10 10 12 12 14 13 14 15 15 15 16 20 19 21 19 20 21 20 19 19 20 21 23 22 20 23 23 25 28 25 25 24
3 4 6 8 10 10 11 11 10 9 10 8 9 11 12 11 11 11 12 13 14 16 17 18 19 21 22 20 22 22 21 20 19 21 21 23 21 20 22 20 24 26 28 26 25